Time,TemperatureF,DewpointF,PressureIn,WindDirection,WindDirectionDegrees,WindSpeedMPH,WindSpeedGustMPH,Humidity,HourlyPrecipIn,Conditions,Clouds,dailyrainin,SoftwareType,DateUTC
2013-04-02 00:00:00,27.3,18.8,30.38,West,274,0.0,1.0,70,0.00,,---,0.00,VWS V14.01,2013-04-02 05:00:00,
2013-04-02 00:02:00,27.2,18.7,30.38,West,274,0.0,0.0,70,0.00,,---,0.00,VWS V14.01,2013-04-02 05:02:00,
2013-04-02 00:07:00,27.1,19.0,30.38,West,274,0.0,0.0,71,0.00,,---,0.00,VWS V14.01,2013-04-02 05:07:00,
2013-04-02 00:13:00,27.0,18.9,30.38,West,274,0.0,0.0,71,0.00,,---,0.00,VWS V14.01,2013-04-02 05:13:00,
2013-04-02 00:18:00,26.9,19.1,30.38,West,274,0.0,0.0,72,0.00,,---,0.00,VWS V14.01,2013-04-02 05:18:00,
2013-04-02 00:23:00,27.0,19.2,30.38,West,274,0.0,0.0,72,0.00,,---,0.00,VWS V14.01,2013-04-02 05:23:00,
2013-04-02 00:28:00,26.9,19.1,30.38,West,274,0.0,0.0,72,0.00,,---,0.00,VWS V14.01,2013-04-02 05:28:00,
2013-04-02 00:30:00,26.9,19.1,30.38,West,274,0.0,0.0,72,0.00,,---,0.00,VWS V14.01,2013-04-02 05:30:00,
2013-04-02 00:33:00,26.8,19.3,30.38,West,274,0.0,0.0,73,0.00,,---,0.00,VWS V14.01,2013-04-02 05:33:00,
2013-04-02 00:38:00,26.9,19.4,30.38,West,274,0.0,0.0,73,0.00,,---,0.00,VWS V14.01,2013-04-02 05:38:00,
2013-04-02 00:43:00,27.0,19.5,30.38,West,274,0.0,1.0,73,0.00,,---,0.00,VWS V14.01,2013-04-02 05:43:00,
2013-04-02 00:48:00,26.9,19.4,30.39,West,274,0.0,1.0,73,0.00,,---,0.00,VWS V14.01,2013-04-02 05:48:00,
2013-04-02 00:53:00,26.8,19.3,30.39,West,274,0.0,1.0,73,0.00,,---,0.00,VWS V14.01,2013-04-02 05:53:00,
2013-04-02 00:58:00,26.6,19.1,30.39,West,274,0.0,1.0,73,0.00,,---,0.00,VWS V14.01,2013-04-02 05:58:00,
2013-04-02 01:00:00,26.6,19.1,30.39,West,274,0.0,1.0,73,0.00,,---,0.00,VWS V14.01,2013-04-02 06:00:00,
2013-04-02 01:03:00,26.4,19.2,30.39,West,274,0.0,1.0,74,0.00,,---,0.00,VWS V14.01,2013-04-02 06:03:00,
2013-04-02 01:08:00,26.3,19.5,30.39,West,274,0.0,1.0,75,0.00,,---,0.00,VWS V14.01,2013-04-02 06:08:00,
2013-04-02 01:13:00,26.2,19.4,30.39,West,274,0.0,1.0,75,0.00,,---,0.00,VWS V14.01,2013-04-02 06:13:00,
2013-04-02 01:18:00,26.1,19.3,30.38,West,274,0.0,1.0,75,0.00,,---,0.00,VWS V14.01,2013-04-02 06:18:00,
2013-04-02 01:23:00,25.9,19.4,30.39,West,274,0.0,1.0,76,0.00,,---,0.00,VWS V14.01,2013-04-02 06:23:00,
2013-04-02 01:29:00,25.9,19.4,30.39,West,274,0.0,1.0,76,0.00,,---,0.00,VWS V14.01,2013-04-02 06:29:00,
2013-04-02 01:30:00,25.9,19.4,30.38,West,274,0.0,1.0,76,0.00,,---,0.00,VWS V14.01,2013-04-02 06:30:00,
2013-04-02 01:34:00,26.0,19.5,30.39,West,274,0.0,0.0,76,0.00,,---,0.00,VWS V14.01,2013-04-02 06:34:00,
2013-04-02 01:39:00,26.2,19.7,30.39,West,274,0.0,1.0,76,0.00,,---,0.00,VWS V14.01,2013-04-02 06:39:00,
2013-04-02 01:44:00,26.3,19.8,30.38,West,274,0.0,1.0,76,0.00,,---,0.00,VWS V14.01,2013-04-02 06:44:00,
2013-04-02 01:49:00,26.4,19.9,30.39,West,274,0.0,1.0,76,0.00,,---,0.00,VWS V14.01,2013-04-02 06:49:00,
2013-04-02 01:54:00,26.4,19.9,30.39,West,274,0.0,1.0,76,0.00,,---,0.00,VWS V14.01,2013-04-02 06:54:00,
2013-04-02 01:59:00,26.4,19.6,30.38,West,274,0.0,1.0,75,0.00,,---,0.00,VWS V14.01,2013-04-02 06:59:00,
2013-04-02 02:00:00,26.4,19.6,30.38,West,274,0.0,1.0,75,0.00,,---,0.00,VWS V14.01,2013-04-02 07:00:00,
2013-04-02 02:04:00,26.2,19.4,30.39,West,274,0.0,0.0,75,0.00,,---,0.00,VWS V14.01,2013-04-02 07:04:00,
2013-04-02 02:09:00,26.0,19.5,30.38,West,274,0.0,0.0,76,0.00,,---,0.00,VWS V14.01,2013-04-02 07:09:00,
2013-04-02 02:14:00,25.9,19.4,30.38,West,274,0.0,0.0,76,0.00,,---,0.00,VWS V14.01,2013-04-02 07:14:00,
2013-04-02 02:19:00,25.8,19.3,30.38,West,274,0.0,0.0,76,0.00,,---,0.00,VWS V14.01,2013-04-02 07:19:00,
2013-04-02 02:24:00,25.6,19.4,30.38,West,274,0.0,0.0,77,0.00,,---,0.00,VWS V14.01,2013-04-02 07:24:00,
2013-04-02 02:29:00,25.5,19.3,30.38,West,274,0.0,0.0,77,0.00,,---,0.00,VWS V14.01,2013-04-02 07:29:00,
2013-04-02 02:30:00,25.5,19.3,30.38,West,274,0.0,0.0,77,0.00,,---,0.00,VWS V14.01,2013-04-02 07:30:00,
2013-04-02 02:34:00,25.3,19.1,30.38,West,274,0.0,0.0,77,0.00,,---,0.00,VWS V14.01,2013-04-02 07:34:00,
2013-04-02 02:40:00,25.1,18.9,30.38,West,274,0.0,0.0,77,0.00,,---,0.00,VWS V14.01,2013-04-02 07:40:00,
2013-04-02 02:45:00,24.8,18.9,30.38,West,274,0.0,0.0,78,0.00,,---,0.00,VWS V14.01,2013-04-02 07:45:00,
2013-04-02 02:50:00,24.6,19.0,30.38,West,274,0.0,0.0,79,0.00,,---,0.00,VWS V14.01,2013-04-02 07:50:00,
2013-04-02 02:55:00,24.5,18.9,30.38,West,274,0.0,0.0,79,0.00,,---,0.00,VWS V14.01,2013-04-02 07:55:00,
2013-04-02 03:00:00,24.3,19.0,30.38,West,274,0.0,0.0,80,0.00,,---,0.00,VWS V14.01,2013-04-02 08:00:00,
2013-04-02 03:05:00,24.3,19.0,30.38,West,274,0.0,0.0,80,0.00,,---,0.00,VWS V14.01,2013-04-02 08:05:00,
2013-04-02 03:10:00,24.4,19.4,30.38,West,274,0.0,0.0,81,0.00,,---,0.00,VWS V14.01,2013-04-02 08:10:00,
2013-04-02 03:15:00,24.5,19.2,30.38,West,274,0.0,0.0,80,0.00,,---,0.00,VWS V14.01,2013-04-02 08:15:00,
2013-04-02 03:20:00,24.5,19.2,30.38,West,274,0.0,0.0,80,0.00,,---,0.00,VWS V14.01,2013-04-02 08:20:00,
2013-04-02 03:25:00,24.4,19.1,30.38,West,274,0.0,0.0,80,0.00,,---,0.00,VWS V14.01,2013-04-02 08:25:00,
2013-04-02 03:30:00,24.2,18.9,30.38,West,274,0.0,0.0,80,0.00,,---,0.00,VWS V14.01,2013-04-02 08:30:00,
2013-04-02 03:35:00,24.1,18.8,30.38,West,274,0.0,0.0,80,0.00,,---,0.00,VWS V14.01,2013-04-02 08:35:00,
2013-04-02 03:41:00,23.9,18.6,30.38,West,274,0.0,1.0,80,0.00,,---,0.00,VWS V14.01,2013-04-02 08:41:00,
2013-04-02 03:46:00,23.5,18.5,30.38,West,274,0.0,1.0,81,0.00,,---,0.00,VWS V14.01,2013-04-02 08:46:00,
2013-04-02 03:51:00,23.3,18.6,30.38,West,274,0.0,1.0,82,0.00,,---,0.00,VWS V14.01,2013-04-02 08:51:00,
2013-04-02 03:56:00,23.0,18.0,30.38,West,274,0.0,1.0,81,0.00,,---,0.00,VWS V14.01,2013-04-02 08:56:00,
2013-04-02 04:00:00,22.7,17.8,30.38,West,274,0.0,1.0,81,0.00,,---,0.00,VWS V14.01,2013-04-02 09:00:00,
2013-04-02 04:01:00,22.6,17.9,30.38,West,274,0.0,0.0,82,0.00,,---,0.00,VWS V14.01,2013-04-02 09:01:00,
2013-04-02 04:07:00,22.7,18.3,30.38,West,274,0.0,0.0,83,0.00,,---,0.00,VWS V14.01,2013-04-02 09:07:00,
2013-04-02 04:12:00,22.8,18.4,30.38,West,274,0.0,0.0,83,0.00,,---,0.00,VWS V14.01,2013-04-02 09:12:00,
2013-04-02 04:17:00,22.8,18.4,30.38,West,274,0.0,0.0,83,0.00,,---,0.00,VWS V14.01,2013-04-02 09:17:00,
2013-04-02 04:22:00,22.8,18.7,30.38,West,274,0.0,0.0,84,0.00,,---,0.00,VWS V14.01,2013-04-02 09:22:00,
2013-04-02 04:27:00,22.9,18.8,30.38,West,274,0.0,0.0,84,0.00,,---,0.00,VWS V14.01,2013-04-02 09:27:00,
2013-04-02 04:30:00,22.9,18.8,30.39,West,274,0.0,0.0,84,0.00,,---,0.00,VWS V14.01,2013-04-02 09:30:00,
2013-04-02 04:32:00,22.9,18.8,30.38,West,274,0.0,0.0,84,0.00,,---,0.00,VWS V14.01,2013-04-02 09:32:00,
2013-04-02 04:37:00,22.9,18.8,30.38,West,274,0.0,0.0,84,0.00,,---,0.00,VWS V14.01,2013-04-02 09:37:00,
2013-04-02 04:42:00,22.9,18.8,30.38,West,274,0.0,0.0,84,0.00,,---,0.00,VWS V14.01,2013-04-02 09:42:00,
2013-04-02 04:47:00,23.0,18.9,30.39,West,274,0.0,0.0,84,0.00,,---,0.00,VWS V14.01,2013-04-02 09:47:00,
2013-04-02 04:52:00,23.0,18.9,30.39,West,274,0.0,0.0,84,0.00,,---,0.00,VWS V14.01,2013-04-02 09:52:00,
2013-04-02 04:57:00,23.1,18.7,30.39,West,274,0.0,0.0,83,0.00,,---,0.00,VWS V14.01,2013-04-02 09:57:00,
2013-04-02 05:00:00,23.0,18.9,30.39,West,274,0.0,0.0,84,0.00,,---,0.00,VWS V14.01,2013-04-02 10:00:00,
2013-04-02 05:02:00,23.1,19.0,30.39,West,274,0.0,0.0,84,0.00,,---,0.00,VWS V14.01,2013-04-02 10:02:00,
2013-04-02 05:07:00,23.1,19.0,30.39,West,274,0.0,0.0,84,0.00,,---,0.00,VWS V14.01,2013-04-02 10:07:00,
2013-04-02 05:12:00,23.2,19.1,30.39,West,274,0.0,0.0,84,0.00,,---,0.00,VWS V14.01,2013-04-02 10:12:00,
2013-04-02 05:17:00,23.2,19.1,30.39,West,274,0.0,0.0,84,0.00,,---,0.00,VWS V14.01,2013-04-02 10:17:00,
2013-04-02 05:23:00,23.1,19.0,30.39,West,274,0.0,0.0,84,0.00,,---,0.00,VWS V14.01,2013-04-02 10:23:00,
2013-04-02 05:28:00,23.0,18.9,30.39,West,274,0.0,0.0,84,0.00,,---,0.00,VWS V14.01,2013-04-02 10:28:00,
2013-04-02 05:30:00,22.9,19.1,30.39,West,274,0.0,0.0,85,0.00,,---,0.00,VWS V14.01,2013-04-02 10:30:00,
2013-04-02 05:33:00,22.8,19.0,30.39,West,274,0.0,0.0,85,0.00,,---,0.00,VWS V14.01,2013-04-02 10:33:00,
2013-04-02 05:38:00,22.6,18.8,30.39,West,274,0.0,0.0,85,0.00,,---,0.00,VWS V14.01,2013-04-02 10:38:00,
2013-04-02 05:43:00,22.5,18.7,30.39,West,274,0.0,0.0,85,0.00,,---,0.00,VWS V14.01,2013-04-02 10:43:00,
2013-04-02 05:48:00,22.5,18.7,30.39,West,274,0.0,0.0,85,0.00,,---,0.00,VWS V14.01,2013-04-02 10:48:00,
2013-04-02 05:53:00,22.5,18.7,30.39,West,274,0.0,0.0,85,0.00,,---,0.00,VWS V14.01,2013-04-02 10:53:00,
2013-04-02 05:58:00,22.5,18.7,30.40,West,274,0.0,0.0,85,0.00,,---,0.00,VWS V14.01,2013-04-02 10:58:00,
2013-04-02 06:00:00,22.6,18.8,30.40,West,274,0.0,0.0,85,0.00,,---,0.00,VWS V14.01,2013-04-02 11:00:00,
2013-04-02 06:03:00,22.6,18.8,30.40,West,274,0.0,0.0,85,0.00,,---,0.00,VWS V14.01,2013-04-02 11:03:00,
2013-04-02 06:08:00,22.5,18.4,30.40,West,274,0.0,0.0,84,0.00,,---,0.00,VWS V14.01,2013-04-02 11:08:00,
2013-04-02 06:13:00,22.3,18.2,30.40,West,274,0.0,0.0,84,0.00,,---,0.00,VWS V14.01,2013-04-02 11:13:00,
2013-04-02 06:18:00,22.0,17.9,30.40,West,274,0.0,0.0,84,0.00,,---,0.00,VWS V14.01,2013-04-02 11:18:00,
2013-04-02 06:23:00,22.0,18.2,30.40,West,274,0.0,0.0,85,0.00,,---,0.00,VWS V14.01,2013-04-02 11:23:00,
2013-04-02 06:29:00,22.0,18.2,30.40,West,274,0.0,0.0,85,0.00,,---,0.00,VWS V14.01,2013-04-02 11:29:00,
2013-04-02 06:30:00,22.0,18.2,30.40,West,274,0.0,0.0,85,0.00,,---,0.00,VWS V14.01,2013-04-02 11:30:00,
2013-04-02 06:34:00,22.0,18.2,30.41,West,274,0.0,0.0,85,0.00,,---,0.00,VWS V14.01,2013-04-02 11:34:00,
2013-04-02 06:39:00,22.0,18.2,30.41,West,274,0.0,0.0,85,0.00,,---,0.00,VWS V14.01,2013-04-02 11:39:00,
2013-04-02 06:44:00,21.9,18.1,30.41,West,274,0.0,0.0,85,0.00,,---,0.00,VWS V14.01,2013-04-02 11:44:00,
2013-04-02 06:49:00,22.0,18.5,30.41,West,274,0.0,0.0,86,0.00,,---,0.00,VWS V14.01,2013-04-02 11:49:00,
2013-04-02 06:54:00,22.1,18.3,30.41,West,274,0.0,0.0,85,0.00,,---,0.00,VWS V14.01,2013-04-02 11:54:00,
2013-04-02 06:59:00,22.1,18.3,30.41,West,274,0.0,0.0,85,0.00,,---,0.00,VWS V14.01,2013-04-02 11:59:00,
2013-04-02 07:00:00,22.1,18.3,30.41,West,274,0.0,0.0,85,0.00,,---,0.00,VWS V14.01,2013-04-02 12:00:00,
2013-04-02 07:04:00,22.0,18.2,30.41,West,274,0.0,0.0,85,0.00,,---,0.00,VWS V14.01,2013-04-02 12:04:00,
2013-04-02 07:09:00,21.9,18.1,30.41,West,274,0.0,0.0,85,0.00,,---,0.00,VWS V14.01,2013-04-02 12:09:00,
2013-04-02 07:14:00,21.9,18.4,30.41,West,274,0.0,0.0,86,0.00,,---,0.00,VWS V14.01,2013-04-02 12:14:00,
2013-04-02 07:19:00,22.0,18.5,30.42,West,274,0.0,0.0,86,0.00,,---,0.00,VWS V14.01,2013-04-02 12:19:00,
2013-04-02 07:24:00,22.2,18.7,30.41,West,274,0.0,0.0,86,0.00,,---,0.00,VWS V14.01,2013-04-02 12:24:00,
2013-04-02 07:29:00,22.5,19.0,30.42,West,274,0.0,1.0,86,0.00,,---,0.00,VWS V14.01,2013-04-02 12:29:00,
2013-04-02 07:30:00,22.5,19.0,30.42,West,274,0.0,1.0,86,0.00,,---,0.00,VWS V14.01,2013-04-02 12:30:00,
2013-04-02 07:34:00,22.9,19.4,30.42,West,274,0.0,0.0,86,0.00,,---,0.00,VWS V14.01,2013-04-02 12:34:00,
2013-04-02 07:39:00,23.8,20.2,30.42,West,274,0.0,0.0,86,0.00,,---,0.00,VWS V14.01,2013-04-02 12:39:00,
2013-04-02 07:44:00,24.5,20.6,30.42,West,274,0.0,0.0,85,0.00,,---,0.00,VWS V14.01,2013-04-02 12:44:00,
2013-04-02 07:49:00,25.0,20.9,30.42,West,274,0.0,1.0,84,0.00,,---,0.00,VWS V14.01,2013-04-02 12:49:00,
2013-04-02 07:54:00,25.8,21.6,30.42,West,274,0.0,1.0,84,0.00,,---,0.00,VWS V14.01,2013-04-02 12:54:00,
2013-04-02 07:59:00,26.4,21.7,30.42,West,274,0.0,0.0,82,0.00,,---,0.00,VWS V14.01,2013-04-02 12:59:00,
2013-04-02 08:00:00,26.4,21.7,30.42,West,274,0.0,1.0,82,0.00,,---,0.00,VWS V14.01,2013-04-02 13:00:00,
2013-04-02 08:04:00,26.7,21.7,30.42,West,263,0.0,1.0,81,0.00,,---,0.00,VWS V14.01,2013-04-02 13:04:00,
2013-04-02 08:09:00,26.8,21.5,30.42,West,263,1.0,1.0,80,0.00,,---,0.00,VWS V14.01,2013-04-02 13:09:00,
2013-04-02 08:14:00,26.9,21.6,30.43,WSW,256,1.0,1.0,80,0.00,,---,0.00,VWS V14.01,2013-04-02 13:14:00,
2013-04-02 08:19:00,27.1,21.5,30.43,West,264,0.0,1.0,79,0.00,,---,0.00,VWS V14.01,2013-04-02 13:19:00,
2013-04-02 08:25:00,27.4,21.8,30.43,West,277,0.0,1.0,79,0.00,,---,0.00,VWS V14.01,2013-04-02 13:25:00,
2013-04-02 08:30:00,27.8,21.9,30.43,West,262,0.0,1.0,78,0.00,,---,0.00,VWS V14.01,2013-04-02 13:30:00,
2013-04-02 08:35:00,28.3,22.0,30.43,West,276,1.0,1.0,77,0.00,,---,0.00,VWS V14.01,2013-04-02 13:35:00,
2013-04-02 08:40:00,28.8,22.2,30.42,NW,309,1.0,2.0,76,0.00,,---,0.00,VWS V14.01,2013-04-02 13:40:00,
2013-04-02 08:45:00,29.2,22.0,30.42,WNW,288,1.0,2.0,74,0.00,,---,0.00,VWS V14.01,2013-04-02 13:45:00,
2013-04-02 08:50:00,29.7,22.1,30.42,WSW,249,1.0,3.0,73,0.00,,---,0.00,VWS V14.01,2013-04-02 13:50:00,
2013-04-02 08:55:00,30.4,22.5,30.43,West,273,2.0,4.0,72,0.00,,---,0.00,VWS V14.01,2013-04-02 13:55:00,
2013-04-02 09:00:00,30.5,22.2,30.43,WNW,288,1.0,4.0,71,0.00,,---,0.00,VWS V14.01,2013-04-02 14:00:00,
2013-04-02 09:05:00,30.7,22.1,30.43,SSW,209,1.0,4.0,70,0.00,,---,0.00,VWS V14.01,2013-04-02 14:05:00,
2013-04-02 09:10:00,31.6,23.0,30.43,WSW,240,1.0,4.0,70,0.00,,---,0.00,VWS V14.01,2013-04-02 14:10:00,
2013-04-02 09:15:00,31.9,22.5,30.42,WSW,240,0.0,4.0,68,0.00,,---,0.00,VWS V14.01,2013-04-02 14:15:00,
2013-04-02 09:20:00,32.1,22.4,30.43,West,262,1.0,4.0,67,0.00,,---,0.00,VWS V14.01,2013-04-02 14:20:00,
2013-04-02 09:25:00,32.4,22.3,30.43,North,359,1.0,4.0,66,0.00,,---,0.00,VWS V14.01,2013-04-02 14:25:00,
2013-04-02 09:30:00,32.9,21.7,30.42,WSW,257,0.0,1.0,63,0.00,,---,0.00,VWS V14.01,2013-04-02 14:30:00,
2013-04-02 09:35:00,33.2,21.6,30.43,WSW,246,0.0,4.0,62,0.00,,---,0.00,VWS V14.01,2013-04-02 14:35:00,
2013-04-02 09:40:00,33.2,21.6,30.42,WSW,257,1.0,4.0,62,0.00,,---,0.00,VWS V14.01,2013-04-02 14:40:00,
2013-04-02 09:46:00,33.5,21.9,30.43,WSW,242,2.0,4.0,62,0.00,,---,0.00,VWS V14.01,2013-04-02 14:46:00,
2013-04-02 09:51:00,34.0,22.4,30.43,SE,128,1.0,4.0,62,0.00,,---,0.00,VWS V14.01,2013-04-02 14:51:00,
2013-04-02 09:56:00,34.3,22.3,30.43,West,269,1.0,4.0,61,0.00,,---,0.00,VWS V14.01,2013-04-02 14:56:00,
2013-04-02 10:00:00,34.6,22.5,30.43,SSW,211,5.0,6.0,61,0.00,,---,0.00,VWS V14.01,2013-04-02 15:00:00,
2013-04-02 10:01:00,34.7,21.5,30.43,West,277,3.0,6.0,58,0.00,,---,0.00,VWS V14.01,2013-04-02 15:01:00,
2013-04-02 10:06:00,34.8,21.1,30.43,WSW,242,2.0,6.0,57,0.00,,---,0.00,VWS V14.01,2013-04-02 15:06:00,
2013-04-02 10:11:00,35.1,20.6,30.43,WSW,246,3.0,7.0,55,0.00,,---,0.00,VWS V14.01,2013-04-02 15:11:00,
2013-04-02 10:16:00,35.6,21.5,30.42,SSW,194,2.0,7.0,56,0.00,,---,0.00,VWS V14.01,2013-04-02 15:16:00,
2013-04-02 10:21:00,35.6,21.0,30.43,SSW,204,0.0,7.0,55,0.00,,---,0.00,VWS V14.01,2013-04-02 15:21:00,
2013-04-02 10:26:00,36.3,21.7,30.42,WNW,283,6.0,7.0,55,0.00,,---,0.00,VWS V14.01,2013-04-02 15:26:00,
2013-04-02 10:30:00,36.4,21.4,30.42,SW,227,1.0,7.0,54,0.00,,---,0.00,VWS V14.01,2013-04-02 15:30:00,
2013-04-02 10:31:00,36.6,21.5,30.42,SW,221,2.0,3.0,54,0.00,,---,0.00,VWS V14.01,2013-04-02 15:31:00,
2013-04-02 10:36:00,36.6,21.1,30.42,SSW,205,3.0,5.0,53,0.00,,---,0.00,VWS V14.01,2013-04-02 15:36:00,
2013-04-02 10:42:00,36.7,21.2,30.43,West,261,2.0,6.0,53,0.00,,---,0.00,VWS V14.01,2013-04-02 15:42:00,
2013-04-02 10:47:00,37.3,21.3,30.43,WSW,250,2.0,6.0,52,0.00,,---,0.00,VWS V14.01,2013-04-02 15:47:00,
2013-04-02 10:52:00,38.0,22.0,30.43,SW,215,2.0,6.0,52,0.00,,---,0.00,VWS V14.01,2013-04-02 15:52:00,
2013-04-02 10:57:00,38.3,21.8,30.43,West,266,4.0,6.0,51,0.00,,---,0.00,VWS V14.01,2013-04-02 15:57:00,
2013-04-02 11:00:00,38.3,21.8,30.43,West,276,3.0,6.0,51,0.00,,---,0.00,VWS V14.01,2013-04-02 16:00:00,
2013-04-02 11:02:00,38.4,22.3,30.43,WNW,288,5.0,9.0,52,0.00,,---,0.00,VWS V14.01,2013-04-02 16:02:00,
2013-04-02 11:07:00,38.3,20.8,30.43,WNW,283,5.0,9.0,49,0.00,,---,0.00,VWS V14.01,2013-04-02 16:07:00,
2013-04-02 11:12:00,38.5,21.5,30.42,West,271,5.0,9.0,50,0.00,,---,0.00,VWS V14.01,2013-04-02 16:12:00,
2013-04-02 11:18:00,38.9,22.3,30.42,WSW,249,5.0,9.0,51,0.00,,---,0.00,VWS V14.01,2013-04-02 16:18:00,
2013-04-02 11:23:00,39.1,21.6,30.42,North,352,2.0,9.0,49,0.00,,---,0.00,VWS V14.01,2013-04-02 16:23:00,
2013-04-02 11:28:00,40.2,23.1,30.43,WNW,284,3.0,9.0,50,0.00,,---,0.00,VWS V14.01,2013-04-02 16:28:00,
2013-04-02 11:30:00,40.1,21.5,30.42,WNW,298,4.0,9.0,47,0.00,,---,0.00,VWS V14.01,2013-04-02 16:30:00,
2013-04-02 11:33:00,39.9,20.8,30.42,North,353,4.0,7.0,46,0.00,,---,0.00,VWS V14.01,2013-04-02 16:33:00,
2013-04-02 11:38:00,39.9,21.3,30.42,West,264,3.0,7.0,47,0.00,,---,0.00,VWS V14.01,2013-04-02 16:38:00,
2013-04-02 11:43:00,40.3,22.2,30.42,SW,219,5.0,7.0,48,0.00,,---,0.00,VWS V14.01,2013-04-02 16:43:00,
2013-04-02 11:48:00,40.6,20.9,30.42,SW,235,2.0,8.0,45,0.00,,---,0.00,VWS V14.01,2013-04-02 16:48:00,
2013-04-02 11:53:00,40.6,20.9,30.42,West,266,3.0,8.0,45,0.00,,---,0.00,VWS V14.01,2013-04-02 16:53:00,
2013-04-02 11:58:00,41.2,22.5,30.41,NNE,15,2.0,8.0,47,0.00,,---,0.00,VWS V14.01,2013-04-02 16:58:00,
2013-04-02 12:00:00,41.5,22.8,30.42,NW,324,2.0,8.0,47,0.00,,---,0.00,VWS V14.01,2013-04-02 17:00:00,
2013-04-02 12:03:00,41.2,21.5,30.41,West,262,6.0,11.0,45,0.00,,---,0.00,VWS V14.01,2013-04-02 17:03:00,
2013-04-02 12:08:00,41.1,20.9,30.41,WNW,284,2.0,11.0,44,0.00,,---,0.00,VWS V14.01,2013-04-02 17:08:00,
2013-04-02 12:14:00,41.1,20.3,30.41,WNW,302,4.0,11.0,43,0.00,,---,0.00,VWS V14.01,2013-04-02 17:14:00,
2013-04-02 12:19:00,41.0,20.8,30.41,North,9,2.0,11.0,44,0.00,,---,0.00,VWS V14.01,2013-04-02 17:19:00,
2013-04-02 12:24:00,41.0,20.8,30.41,West,278,3.0,11.0,44,0.00,,---,0.00,VWS V14.01,2013-04-02 17:24:00,
2013-04-02 12:29:00,41.3,20.0,30.41,WNW,290,8.0,11.0,42,0.00,,---,0.00,VWS V14.01,2013-04-02 17:29:00,
2013-04-02 12:30:00,41.3,20.0,30.41,WNW,291,8.0,11.0,42,0.00,,---,0.00,VWS V14.01,2013-04-02 17:30:00,
2013-04-02 12:34:00,41.7,19.8,30.41,North,349,3.0,8.0,41,0.00,,---,0.00,VWS V14.01,2013-04-02 17:34:00,
2013-04-02 12:39:00,41.6,19.7,30.40,NW,309,3.0,10.0,41,0.00,,---,0.00,VWS V14.01,2013-04-02 17:39:00,
2013-04-02 12:44:00,41.9,19.9,30.40,West,263,4.0,10.0,41,0.00,,---,0.00,VWS V14.01,2013-04-02 17:44:00,
2013-04-02 12:49:00,42.2,19.0,30.40,North,11,5.0,11.0,39,0.00,,---,0.00,VWS V14.01,2013-04-02 17:49:00,
2013-04-02 12:54:00,42.6,19.4,30.40,NW,315,4.0,11.0,39,0.00,,---,0.00,VWS V14.01,2013-04-02 17:54:00,
2013-04-02 12:59:00,42.5,19.3,30.40,WSW,248,10.0,10.0,39,0.00,,---,0.00,VWS V14.01,2013-04-02 17:59:00,
2013-04-02 13:00:00,42.5,19.3,30.40,West,271,2.0,11.0,39,0.00,,---,0.00,VWS V14.01,2013-04-02 18:00:00,
2013-04-02 13:04:00,42.6,19.4,30.40,WNW,300,3.0,13.0,39,0.00,,---,0.00,VWS V14.01,2013-04-02 18:04:00,
2013-04-02 13:09:00,42.7,19.5,30.39,WNW,293,6.0,13.0,39,0.00,,---,0.00,VWS V14.01,2013-04-02 18:09:00,
2013-04-02 13:14:00,42.9,20.3,30.39,NW,308,4.0,13.0,40,0.00,,---,0.00,VWS V14.01,2013-04-02 18:14:00,
2013-04-02 13:19:00,43.1,19.2,30.39,NE,42,4.0,13.0,38,0.00,,---,0.00,VWS V14.01,2013-04-02 18:19:00,
2013-04-02 13:24:00,43.2,19.3,30.39,NNW,328,9.0,14.0,38,0.00,,---,0.00,VWS V14.01,2013-04-02 18:24:00,
2013-04-02 13:30:00,43.4,20.1,30.39,West,269,2.0,5.0,39,0.00,,---,0.00,VWS V14.01,2013-04-02 18:30:00,
2013-04-02 13:35:00,43.3,19.4,30.39,West,276,2.0,12.0,38,0.00,,---,0.00,VWS V14.01,2013-04-02 18:35:00,
2013-04-02 13:40:00,43.5,18.3,30.39,NNW,347,5.0,12.0,36,0.00,,---,0.00,VWS V14.01,2013-04-02 18:40:00,
2013-04-02 13:45:00,43.5,18.3,30.38,WSW,252,3.0,12.0,36,0.00,,---,0.00,VWS V14.01,2013-04-02 18:45:00,
2013-04-02 13:50:00,43.9,20.6,30.38,West,274,5.0,12.0,39,0.00,,---,0.00,VWS V14.01,2013-04-02 18:50:00,
2013-04-02 13:56:00,44.2,20.2,30.39,WNW,300,6.0,12.0,38,0.00,,---,0.00,VWS V14.01,2013-04-02 18:56:00,
2013-04-02 14:00:00,44.0,20.0,30.39,NW,317,6.0,12.0,38,0.00,,---,0.00,VWS V14.01,2013-04-02 19:00:00,
2013-04-02 14:01:00,43.9,20.0,30.39,NW,309,3.0,6.0,38,0.00,,---,0.00,VWS V14.01,2013-04-02 19:01:00,
2013-04-02 14:06:00,44.1,20.1,30.38,WSW,242,3.0,7.0,38,0.00,,---,0.00,VWS V14.01,2013-04-02 19:06:00,
2013-04-02 14:12:00,44.2,20.8,30.38,NW,322,4.0,8.0,39,0.00,,---,0.00,VWS V14.01,2013-04-02 19:12:00,
2013-04-02 14:17:00,44.1,19.5,30.38,NNW,335,7.0,13.0,37,0.00,,---,0.00,VWS V14.01,2013-04-02 19:17:00,
2013-04-02 14:22:00,44.3,20.3,30.38,North,353,2.0,13.0,38,0.00,,---,0.00,VWS V14.01,2013-04-02 19:22:00,
2013-04-02 14:27:00,44.6,21.2,30.37,West,276,2.0,13.0,39,0.00,,---,0.00,VWS V14.01,2013-04-02 19:27:00,
2013-04-02 14:30:00,44.5,19.9,30.37,WNW,288,2.0,13.0,37,0.00,,---,0.00,VWS V14.01,2013-04-02 19:30:00,
2013-04-02 14:32:00,44.9,20.2,30.37,NW,319,7.0,9.0,37,0.00,,---,0.00,VWS V14.01,2013-04-02 19:32:00,
2013-04-02 14:37:00,45.5,19.5,30.37,North,8,3.0,9.0,35,0.00,,---,0.00,VWS V14.01,2013-04-02 19:37:00,
2013-04-02 14:42:00,45.1,19.8,30.37,NW,304,5.0,14.0,36,0.00,,---,0.00,VWS V14.01,2013-04-02 19:42:00,
2013-04-02 14:47:00,45.6,20.9,30.38,NNW,331,7.0,14.0,37,0.00,,---,0.00,VWS V14.01,2013-04-02 19:47:00,
2013-04-02 14:52:00,45.3,19.9,30.37,SW,232,1.0,14.0,36,0.00,,---,0.00,VWS V14.01,2013-04-02 19:52:00,
2013-04-02 14:57:00,45.5,20.1,30.37,NNW,331,6.0,14.0,36,0.00,,---,0.00,VWS V14.01,2013-04-02 19:57:00,
2013-04-02 15:00:00,45.2,19.2,30.37,NW,305,3.0,14.0,35,0.00,,---,0.00,VWS V14.01,2013-04-02 20:00:00,
2013-04-02 15:02:00,45.3,20.6,30.37,WSW,248,1.0,7.0,37,0.00,,---,0.00,VWS V14.01,2013-04-02 20:02:00,
2013-04-02 15:08:00,45.3,19.9,30.37,NNW,346,5.0,12.0,36,0.00,,---,0.00,VWS V14.01,2013-04-02 20:08:00,
2013-04-02 15:13:00,44.8,20.8,30.37,SW,235,3.0,12.0,38,0.00,,---,0.00,VWS V14.01,2013-04-02 20:13:00,
2013-04-02 15:18:00,45.2,21.1,30.37,SW,225,0.0,12.0,38,0.00,,---,0.00,VWS V14.01,2013-04-02 20:18:00,
2013-04-02 15:23:00,44.8,20.1,30.37,North,351,4.0,12.0,37,0.00,,---,0.00,VWS V14.01,2013-04-02 20:23:00,
2013-04-02 15:28:00,45.2,21.7,30.37,NE,40,4.0,13.0,39,0.00,,---,0.00,VWS V14.01,2013-04-02 20:28:00,
2013-04-02 15:30:00,45.2,21.1,30.37,NNE,26,2.0,13.0,38,0.00,,---,0.00,VWS V14.01,2013-04-02 20:30:00,
2013-04-02 15:33:00,45.2,21.1,30.37,NW,321,2.0,5.0,38,0.00,,---,0.00,VWS V14.01,2013-04-02 20:33:00,
2013-04-02 15:38:00,44.9,20.9,30.37,NE,53,1.0,11.0,38,0.00,,---,0.00,VWS V14.01,2013-04-02 20:38:00,
2013-04-02 15:43:00,45.1,22.2,30.37,ENE,71,1.0,12.0,40,0.00,,---,0.00,VWS V14.01,2013-04-02 20:43:00,
2013-04-02 15:48:00,45.0,20.3,30.37,NNW,338,6.0,13.0,37,0.00,,---,0.00,VWS V14.01,2013-04-02 20:48:00,
2013-04-02 15:54:00,44.9,20.9,30.37,WNW,282,1.0,13.0,38,0.00,,---,0.00,VWS V14.01,2013-04-02 20:54:00,
2013-04-02 15:59:00,44.9,20.2,30.37,West,262,4.0,13.0,37,0.00,,---,0.00,VWS V14.01,2013-04-02 20:59:00,
2013-04-02 16:00:00,44.9,20.2,30.37,NNW,342,5.0,13.0,37,0.00,,---,0.00,VWS V14.01,2013-04-02 21:00:00,
2013-04-02 16:04:00,45.2,22.3,30.37,North,352,2.0,8.0,40,0.00,,---,0.00,VWS V14.01,2013-04-02 21:04:00,
2013-04-02 16:09:00,45.4,21.9,30.37,ENE,57,4.0,12.0,39,0.00,,---,0.00,VWS V14.01,2013-04-02 21:09:00,
2013-04-02 16:14:00,45.4,21.9,30.37,NNW,333,6.0,12.0,39,0.00,,---,0.00,VWS V14.01,2013-04-02 21:14:00,
2013-04-02 16:19:00,45.4,21.3,30.37,NNW,333,3.0,12.0,38,0.00,,---,0.00,VWS V14.01,2013-04-02 21:19:00,
2013-04-02 16:24:00,45.0,21.5,30.37,WNW,295,0.0,12.0,39,0.00,,---,0.00,VWS V14.01,2013-04-02 21:24:00,
2013-04-02 16:29:00,45.5,20.8,30.37,WNW,302,2.0,12.0,37,0.00,,---,0.00,VWS V14.01,2013-04-02 21:29:00,
2013-04-02 16:30:00,45.5,20.8,30.37,WNW,302,2.0,12.0,37,0.00,,---,0.00,VWS V14.01,2013-04-02 21:30:00,
2013-04-02 16:34:00,45.3,21.2,30.37,West,280,3.0,9.0,38,0.00,,---,0.00,VWS V14.01,2013-04-02 21:34:00,
2013-04-02 16:39:00,45.4,20.7,30.37,NNW,338,3.0,9.0,37,0.00,,---,0.00,VWS V14.01,2013-04-02 21:39:00,
2013-04-02 16:44:00,45.5,22.0,30.37,WNW,297,1.0,10.0,39,0.00,,---,0.00,VWS V14.01,2013-04-02 21:44:00,
2013-04-02 16:49:00,45.3,21.8,30.37,WNW,300,2.0,10.0,39,0.00,,---,0.00,VWS V14.01,2013-04-02 21:49:00,
2013-04-02 16:55:00,45.3,21.2,30.37,NNE,22,4.0,11.0,38,0.00,,---,0.00,VWS V14.01,2013-04-02 21:55:00,
2013-04-02 17:00:00,45.4,20.7,30.37,NNW,342,7.0,11.0,37,0.00,,---,0.00,VWS V14.01,2013-04-02 22:00:00,
2013-04-02 17:05:00,45.1,22.2,30.37,North,6,2.0,11.0,40,0.00,,---,0.00,VWS V14.01,2013-04-02 22:05:00,
2013-04-02 17:10:00,45.0,22.1,30.37,NNE,27,3.0,11.0,40,0.00,,---,0.00,VWS V14.01,2013-04-02 22:10:00,
2013-04-02 17:15:00,45.5,22.0,30.37,North,6,3.0,11.0,39,0.00,,---,0.00,VWS V14.01,2013-04-02 22:15:00,
2013-04-02 17:20:00,45.3,23.0,30.37,NNE,16,1.0,11.0,41,0.00,,---,0.00,VWS V14.01,2013-04-02 22:20:00,
2013-04-02 17:25:00,45.0,22.7,30.37,NNE,13,2.0,12.0,41,0.00,,---,0.00,VWS V14.01,2013-04-02 22:25:00,
2013-04-02 17:30:00,45.0,22.7,30.37,NNW,328,3.0,12.0,41,0.00,,---,0.00,VWS V14.01,2013-04-02 22:30:00,
2013-04-02 17:31:00,45.1,22.2,30.37,NNE,23,4.0,6.0,40,0.00,,---,0.00,VWS V14.01,2013-04-02 22:31:00,
2013-04-02 17:36:00,44.8,20.8,30.37,NW,315,3.0,9.0,38,0.00,,---,0.00,VWS V14.01,2013-04-02 22:36:00,
2013-04-02 17:41:00,44.9,22.1,30.37,West,271,1.0,9.0,40,0.00,,---,0.00,VWS V14.01,2013-04-02 22:41:00,
2013-04-02 17:46:00,44.9,22.1,30.37,NW,316,2.0,9.0,40,0.00,,---,0.00,VWS V14.01,2013-04-02 22:46:00,
2013-04-02 17:51:00,44.6,22.4,30.37,NE,49,3.0,9.0,41,0.00,,---,0.00,VWS V14.01,2013-04-02 22:51:00,
2013-04-02 17:57:00,44.3,22.1,30.37,NE,41,2.0,10.0,41,0.00,,---,0.00,VWS V14.01,2013-04-02 22:57:00,
2013-04-02 18:00:00,44.3,22.7,30.37,SSW,212,1.0,10.0,42,0.00,,---,0.00,VWS V14.01,2013-04-02 23:00:00,
2013-04-02 18:02:00,44.3,22.7,30.37,NNE,30,3.0,9.0,42,0.00,,---,0.00,VWS V14.01,2013-04-02 23:02:00,
2013-04-02 18:07:00,44.1,23.0,30.37,NE,44,3.0,9.0,43,0.00,,---,0.00,VWS V14.01,2013-04-02 23:07:00,
2013-04-02 18:12:00,44.0,23.0,30.37,West,260,3.0,9.0,43,0.00,,---,0.00,VWS V14.01,2013-04-02 23:12:00,
2013-04-02 18:17:00,43.6,22.6,30.37,North,351,7.0,12.0,43,0.00,,---,0.00,VWS V14.01,2013-04-02 23:17:00,
2013-04-02 18:23:00,43.3,22.3,30.37,ESE,105,3.0,12.0,43,0.00,,---,0.00,VWS V14.01,2013-04-02 23:23:00,
2013-04-02 18:28:00,43.3,22.9,30.37,ENE,74,3.0,12.0,44,0.00,,---,0.00,VWS V14.01,2013-04-02 23:28:00,
2013-04-02 18:30:00,43.2,22.2,30.37,NNE,28,2.0,12.0,43,0.00,,---,0.00,VWS V14.01,2013-04-02 23:30:00,
2013-04-02 18:33:00,42.8,22.4,30.37,NW,325,5.0,10.0,44,0.00,,---,0.00,VWS V14.01,2013-04-02 23:33:00,
2013-04-02 18:38:00,42.5,22.7,30.37,ENE,58,5.0,10.0,45,0.00,,---,0.00,VWS V14.01,2013-04-02 23:38:00,
2013-04-02 18:43:00,42.3,22.0,30.38,North,11,3.0,10.0,44,0.00,,---,0.00,VWS V14.01,2013-04-02 23:43:00,
2013-04-02 18:48:00,42.0,22.2,30.38,NE,42,3.0,10.0,45,0.00,,---,0.00,VWS V14.01,2013-04-02 23:48:00,
2013-04-02 18:53:00,41.9,21.6,30.38,NE,46,3.0,13.0,44,0.00,,---,0.00,VWS V14.01,2013-04-02 23:53:00,
2013-04-02 18:58:00,41.7,21.9,30.38,NE,53,1.0,13.0,45,0.00,,---,0.00,VWS V14.01,2013-04-02 23:58:00,
2013-04-02 19:00:00,41.7,21.9,30.38,NE,46,2.0,13.0,45,0.00,,---,0.00,VWS V14.01,2013-04-03 00:00:00,
2013-04-02 19:03:00,41.5,23.3,30.38,NW,316,1.0,6.0,48,0.00,,---,0.00,VWS V14.01,2013-04-03 00:03:00,
2013-04-02 19:08:00,41.4,23.7,30.38,ENE,61,3.0,6.0,49,0.00,,---,0.00,VWS V14.01,2013-04-03 00:08:00,
2013-04-02 19:13:00,41.1,23.4,30.38,NNE,26,5.0,6.0,49,0.00,,---,0.00,VWS V14.01,2013-04-03 00:13:00,
2013-04-02 19:18:00,40.7,23.5,30.39,ENE,61,0.0,6.0,50,0.00,,---,0.00,VWS V14.01,2013-04-03 00:18:00,
2013-04-02 19:24:00,40.2,23.5,30.39,North,350,1.0,6.0,51,0.00,,---,0.00,VWS V14.01,2013-04-03 00:24:00,
2013-04-02 19:29:00,39.8,23.6,30.39,ENE,75,2.0,7.0,52,0.00,,---,0.00,VWS V14.01,2013-04-03 00:29:00,
2013-04-02 19:30:00,39.7,23.5,30.39,NE,44,2.0,7.0,52,0.00,,---,0.00,VWS V14.01,2013-04-03 00:30:00,
2013-04-02 19:34:00,39.5,23.8,30.39,North,11,2.0,6.0,53,0.00,,---,0.00,VWS V14.01,2013-04-03 00:34:00,
2013-04-02 19:39:00,39.2,24.0,30.39,ENE,70,2.0,6.0,54,0.00,,---,0.00,VWS V14.01,2013-04-03 00:39:00,
2013-04-02 19:44:00,38.9,24.1,30.39,East,82,2.0,8.0,55,0.00,,---,0.00,VWS V14.01,2013-04-03 00:44:00,
2013-04-02 19:49:00,38.6,24.3,30.39,ENE,61,1.0,9.0,56,0.00,,---,0.00,VWS V14.01,2013-04-03 00:49:00,
2013-04-02 19:54:00,38.3,24.4,30.39,NE,49,4.0,9.0,57,0.00,,---,0.00,VWS V14.01,2013-04-03 00:54:00,
2013-04-02 19:59:00,38.0,24.5,30.39,NE,36,3.0,4.0,58,0.00,,---,0.00,VWS V14.01,2013-04-03 00:59:00,
2013-04-02 20:00:00,38.0,24.5,30.39,NE,51,3.0,9.0,58,0.00,,---,0.00,VWS V14.01,2013-04-03 01:00:00,
2013-04-02 20:04:00,37.7,24.7,30.39,ENE,65,1.0,7.0,59,0.00,,---,0.00,VWS V14.01,2013-04-03 01:04:00,
2013-04-02 20:09:00,37.4,24.4,30.39,ENE,71,1.0,7.0,59,0.00,,---,0.00,VWS V14.01,2013-04-03 01:09:00,
2013-04-02 20:14:00,37.2,24.6,30.39,NE,44,5.0,7.0,60,0.00,,---,0.00,VWS V14.01,2013-04-03 01:14:00,
2013-04-02 20:19:00,37.0,24.4,30.39,NE,44,1.0,7.0,60,0.00,,---,0.00,VWS V14.01,2013-04-03 01:19:00,
2013-04-02 20:25:00,36.8,24.6,30.39,ENE,74,2.0,7.0,61,0.00,,---,0.00,VWS V14.01,2013-04-03 01:25:00,
2013-04-02 20:30:00,36.7,24.5,30.39,NE,53,1.0,4.0,61,0.00,,---,0.00,VWS V14.01,2013-04-03 01:30:00,
2013-04-02 20:35:00,36.5,24.7,30.39,NE,53,3.0,5.0,62,0.00,,---,0.00,VWS V14.01,2013-04-03 01:35:00,
2013-04-02 20:40:00,36.3,24.5,30.39,ENE,65,0.0,5.0,62,0.00,,---,0.00,VWS V14.01,2013-04-03 01:40:00,
2013-04-02 20:45:00,36.0,24.6,30.40,East,101,1.0,5.0,63,0.00,,---,0.00,VWS V14.01,2013-04-03 01:45:00,
2013-04-02 20:50:00,35.7,24.4,30.40,NE,34,4.0,6.0,63,0.00,,---,0.00,VWS V14.01,2013-04-03 01:50:00,
2013-04-02 20:55:00,35.6,24.6,30.40,NE,47,2.0,6.0,64,0.00,,---,0.00,VWS V14.01,2013-04-03 01:55:00,
2013-04-02 21:00:00,35.3,24.4,30.40,NNE,33,3.0,4.0,64,0.00,,---,0.00,VWS V14.01,2013-04-03 02:00:00,
2013-04-02 21:05:00,35.2,24.3,30.40,NE,44,2.0,4.0,64,0.00,,---,0.00,VWS V14.01,2013-04-03 02:05:00,
2013-04-02 21:10:00,35.0,24.4,30.40,NE,51,3.0,5.0,65,0.00,,---,0.00,VWS V14.01,2013-04-03 02:10:00,
2013-04-02 21:15:00,34.9,24.3,30.40,East,88,1.0,5.0,65,0.00,,---,0.00,VWS V14.01,2013-04-03 02:15:00,
2013-04-02 21:20:00,34.7,24.1,30.40,East,79,1.0,5.0,65,0.00,,---,0.00,VWS V14.01,2013-04-03 02:20:00,
2013-04-02 21:25:00,34.4,23.9,30.41,ESE,114,0.0,5.0,65,0.00,,---,0.00,VWS V14.01,2013-04-03 02:25:00,
2013-04-02 21:30:00,34.0,23.9,30.41,SE,127,1.0,1.0,66,0.00,,---,0.00,VWS V14.01,2013-04-03 02:30:00,
2013-04-02 21:35:00,33.5,23.4,30.41,ESE,116,0.0,2.0,66,0.00,,---,0.00,VWS V14.01,2013-04-03 02:35:00,
2013-04-02 21:41:00,33.0,23.2,30.41,ESE,116,0.0,2.0,67,0.00,,---,0.00,VWS V14.01,2013-04-03 02:41:00,
2013-04-02 21:46:00,32.8,23.8,30.42,East,79,0.0,2.0,69,0.00,,---,0.00,VWS V14.01,2013-04-03 02:46:00,
2013-04-02 21:52:00,32.8,23.8,30.42,East,90,1.0,2.0,69,0.00,,---,0.00,VWS V14.01,2013-04-03 02:52:00,
2013-04-02 21:57:00,32.7,23.7,30.42,East,84,0.0,2.0,69,0.00,,---,0.00,VWS V14.01,2013-04-03 02:57:00,
2013-04-02 22:00:00,32.7,23.7,30.42,ENE,65,1.0,2.0,69,0.00,,---,0.00,VWS V14.01,2013-04-03 03:00:00,
2013-04-02 22:02:00,32.7,23.7,30.42,ENE,67,0.0,1.0,69,0.00,,---,0.00,VWS V14.01,2013-04-03 03:02:00,
2013-04-02 22:07:00,32.5,23.5,30.42,ENE,77,0.0,1.0,69,0.00,,---,0.00,VWS V14.01,2013-04-03 03:07:00,
2013-04-02 22:12:00,32.4,23.4,30.42,ESE,103,0.0,1.0,69,0.00,,---,0.00,VWS V14.01,2013-04-03 03:12:00,
2013-04-02 22:17:00,32.1,23.1,30.42,ESE,103,0.0,1.0,69,0.00,,---,0.00,VWS V14.01,2013-04-03 03:17:00,
2013-04-02 22:22:00,31.6,22.6,30.42,ESE,103,0.0,1.0,69,0.00,,---,0.00,VWS V14.01,2013-04-03 03:22:00,
2013-04-02 22:28:00,31.5,23.2,30.42,East,82,1.0,2.0,71,0.00,,---,0.00,VWS V14.01,2013-04-03 03:28:00,
2013-04-02 22:30:00,31.6,23.3,30.42,East,82,0.0,2.0,71,0.00,,---,0.00,VWS V14.01,2013-04-03 03:30:00,
2013-04-02 22:33:00,31.8,23.5,30.42,East,82,2.0,2.0,71,0.00,,---,0.00,VWS V14.01,2013-04-03 03:33:00,
2013-04-02 22:38:00,31.9,23.2,30.42,ENE,58,0.0,2.0,70,0.00,,---,0.00,VWS V14.01,2013-04-03 03:38:00,
2013-04-02 22:43:00,31.8,23.1,30.42,ENE,58,1.0,2.0,70,0.00,,---,0.00,VWS V14.01,2013-04-03 03:43:00,
2013-04-02 22:48:00,31.8,23.5,30.42,NE,49,1.0,2.0,71,0.00,,---,0.00,VWS V14.01,2013-04-03 03:48:00,
2013-04-02 22:53:00,31.6,23.3,30.42,NE,46,1.0,2.0,71,0.00,,---,0.00,VWS V14.01,2013-04-03 03:53:00,
2013-04-02 22:58:00,31.4,23.4,30.42,ENE,65,0.0,2.0,72,0.00,,---,0.00,VWS V14.01,2013-04-03 03:58:00,
2013-04-02 23:00:00,31.4,23.4,30.42,ENE,63,1.0,4.0,72,0.00,,---,0.00,VWS V14.01,2013-04-03 04:00:00,
2013-04-02 23:01:00,31.4,23.4,30.42,ESE,108,1.0,4.0,72,0.00,,---,0.00,VWS V14.01,2013-04-03 04:01:00,
2013-04-02 23:06:00,31.4,23.4,30.42,ENE,72,0.0,4.0,72,0.00,,---,0.00,VWS V14.01,2013-04-03 04:06:00,
2013-04-02 23:11:00,31.3,23.3,30.42,East,84,0.0,4.0,72,0.00,,---,0.00,VWS V14.01,2013-04-03 04:11:00,
2013-04-02 23:16:00,31.2,23.2,30.42,ENE,78,0.0,4.0,72,0.00,,---,0.00,VWS V14.01,2013-04-03 04:16:00,
2013-04-02 23:22:00,31.1,23.1,30.42,ENE,78,1.0,4.0,72,0.00,,---,0.00,VWS V14.01,2013-04-03 04:22:00,
2013-04-02 23:27:00,31.0,23.0,30.42,ENE,78,0.0,4.0,72,0.00,,---,0.00,VWS V14.01,2013-04-03 04:27:00,
2013-04-02 23:30:00,30.9,23.3,30.42,NE,56,1.0,4.0,73,0.00,,---,0.00,VWS V14.01,2013-04-03 04:30:00,
2013-04-02 23:32:00,30.8,23.2,30.42,NE,56,0.0,2.0,73,0.00,,---,0.00,VWS V14.01,2013-04-03 04:32:00,
2013-04-02 23:37:00,30.6,23.0,30.42,ENE,65,0.0,2.0,73,0.00,,---,0.00,VWS V14.01,2013-04-03 04:37:00,
2013-04-02 23:42:00,30.4,23.1,30.42,ENE,65,1.0,2.0,74,0.00,,---,0.00,VWS V14.01,2013-04-03 04:42:00,
2013-04-02 23:47:00,30.4,23.1,30.42,ENE,63,1.0,2.0,74,0.00,,---,0.00,VWS V14.01,2013-04-03 04:47:00,
2013-04-02 23:52:00,30.4,23.1,30.42,ENE,63,0.0,2.0,74,0.00,,---,0.00,VWS V14.01,2013-04-03 04:52:00,
2013-04-02 23:57:00,30.4,23.1,30.42,ENE,58,1.0,2.0,74,0.00,,---,0.00,VWS V14.01,2013-04-03 04:57:00,